Location: Unspecified
(48.8656°N, 0.0000°E)
Time: 01:31:23
(UTC+00:00)

Vanguard 1 Rocket - Pass Details

Date: 22 June 2019
Orbit: 652 x 4224 km, 34.3° (Epoch: 18 August)

Event Time Altitude Azimuth Distance (km) Brightness Sun altitude
Rises 19:59:05 0° 258° (WSW) 6,325 12.4 0.3°
Reaches altitude 10° 20:04:36 10° 249° (WSW) 4,661 11.5 -0.5°
Maximum altitude 20:13:56 29° 196° (SSW) 2,301 9.3 -1.7°
Drops below altitude 10° 20:19:39 10° 137° (SE) 2,774 9.2 -2.4°
Enters shadow 20:21:18 - 128° (SE) 3,232 9.5 -2.6°
Sets 20:22:03 0° 125° (SE) 3,461 - -2.7°
